When you browse on this site, cookies collect data to enhance your experience and personalize the content and advertising you see.
Visit our Privacy Policy to learn more. By continuing to use the site, you agree to this use of cookies and data.
  • In France
  • List of Countries
  • For 7 days
  • Water Temperature
  • Satellite Maps
  • Weather Map
  • Weather Widgets
  • user-avatar
    Login

    Hourly Weather Ulanova

    Today, 27 May, Monday

    Time Temperature Precipitation Wind Pressure Humidity
    00:00 +11°C° 0 mm 3 mps 738 mmHg 93%
    01:00 +10°C° 0 mm 3 mps 738 mmHg 93%
    02:00 +9°C° 0 mm 3 mps 739 mmHg 95%
    03:00 +9°C° 0 mm 3 mps 739 mmHg 94%
    04:00 +10°C° 0 mm 3 mps 740 mmHg 93%
    05:00 +10°C° 0 mm 3 mps 740 mmHg 93%
    06:00 +11°C° 0 mm 3 mps 740 mmHg 86%
    07:00 +13°C° 0 mm 3 mps 741 mmHg 79%
    08:00 +15°C° 0 mm 4 mps 741 mmHg 72%
    09:00 +17°C° 0 mm 4 mps 741 mmHg 68%
    10:00 +18°C° 0 mm 4 mps 741 mmHg 64%
    11:00 +20°C° 0 mm 4 mps 742 mmHg 60%
    12:00 +20°C° 0 mm 4 mps 742 mmHg 59%
    13:00 +21°C° 0 mm 4 mps 742 mmHg 59%
    14:00 +22°C° 0 mm 5 mps 742 mmHg 58%
    15:00 +21°C° 0 mm 4 mps 742 mmHg 62%
    16:00 +21°C° 0 mm 4 mps 742 mmHg 65%
    17:00 +21°C° 0 mm 3 mps 742 mmHg 68%
    18:00 +20°C° 0 mm 3 mps 742 mmHg 75%
    19:00 +18°C° 0 mm 3 mps 742 mmHg 81%
    20:00 +17°C° 0 mm 3 mps 742 mmHg 88%
    21:00 +16°C° 0 mm 3 mps 742 mmHg 90%
    22:00 +14°C° 0 mm 3 mps 743 mmHg 91%
    23:00 +14°C° 0 mm 3 mps 743 mmHg 93%

    Tomorrow, 28 May, Tuesday

    Time Temperature Precipitation Wind Pressure Humidity
    00:00 +14°C° 0 mm 3 mps 743 mmHg 94%
    01:00 +14°C° 0 mm 3 mps 743 mmHg 94%
    02:00 +13°C° 0 mm 3 mps 743 mmHg 95%
    03:00 +14°C° 0 mm 3 mps 743 mmHg 94%
    04:00 +14°C° 0 mm 3 mps 744 mmHg 94%
    05:00 +16°C° 0 mm 3 mps 744 mmHg 93%
    06:00 +18°C° 0 mm 3 mps 744 mmHg 88%
    07:00 +19°C° 0 mm 3 mps 744 mmHg 83%
    08:00 +21°C° 0 mm 3 mps 744 mmHg 78%
    09:00 +23°C° 0.2 mm 4 mps 744 mmHg 74%
    10:00 +25°C° 0.2 mm 4 mps 745 mmHg 69%
    11:00 +26°C° 0.2 mm 4 mps 745 mmHg 64%
    12:00 +26°C° 0.2 mm 5 mps 745 mmHg 65%
    13:00 +26°C° 0.2 mm 5 mps 745 mmHg 65%
    14:00 +26°C° 0.2 mm 5 mps 745 mmHg 66%
    15:00 +26°C° 0.1 mm 4 mps 744 mmHg 68%
    16:00 +26°C° 0.1 mm 4 mps 744 mmHg 70%
    17:00 +26°C° 0.1 mm 3 mps 744 mmHg 71%
    18:00 +24°C° 0 mm 3 mps 744 mmHg 77%
    19:00 +21°C° 0 mm 3 mps 744 mmHg 82%
    20:00 +20°C° 0 mm 3 mps 744 mmHg 88%
    21:00 +19°C° 0 mm 3 mps 745 mmHg 90%
    22:00 +18°C° 0 mm 3 mps 745 mmHg 91%
    23:00 +18°C° 0 mm 3 mps 745 mmHg 92%

    Day after tomorrow, 29 May, Wednesday

    Time Temperature Precipitation Wind Pressure Humidity
    00:00 +18°C° 0 mm 3 mps 745 mmHg 93%
    01:00 +17°C° 0 mm 3 mps 745 mmHg 93%
    02:00 +17°C° 0 mm 3 mps 745 mmHg 93%
    03:00 +17°C° 0 mm 3 mps 745 mmHg 91%
    04:00 +18°C° 0 mm 3 mps 746 mmHg 90%
    05:00 +18°C° 0 mm 3 mps 746 mmHg 89%
    06:00 +20°C° 0 mm 4 mps 746 mmHg 83%
    07:00 +21°C° 0 mm 4 mps 746 mmHg 78%
    08:00 +23°C° 0 mm 5 mps 746 mmHg 72%
    09:00 +25°C° 0 mm 5 mps 746 mmHg 68%
    10:00 +26°C° 0 mm 6 mps 746 mmHg 65%
    11:00 +27°C° 0 mm 6 mps 746 mmHg 61%
    12:00 +27°C° 0 mm 6 mps 746 mmHg 61%
    13:00 +27°C° 0 mm 6 mps 746 mmHg 60%
    14:00 +28°C° 0 mm 6 mps 746 mmHg 60%
    15:00 +27°C° 0.1 mm 5 mps 746 mmHg 64%
    16:00 +27°C° 0.1 mm 4 mps 745 mmHg 67%
    17:00 +26°C° 0.1 mm 4 mps 745 mmHg 71%
    18:00 +25°C° 0 mm 3 mps 745 mmHg 77%
    19:00 +22°C° 0 mm 3 mps 745 mmHg 83%
    20:00 +20°C° 0 mm 3 mps 745 mmHg 89%
    21:00 +20°C° 0 mm 3 mps 746 mmHg 90%
    22:00 +19°C° 0 mm 3 mps 746 mmHg 92%
    23:00 +19°C° 0 mm 3 mps 746 mmHg 93%

    30 May, Thursday

    Time Temperature Precipitation Wind Pressure Humidity
    00:00 +18°C° 0 mm 3 mps 746 mmHg 94%
    01:00 +18°C° 0 mm 3 mps 746 mmHg 94%
    02:00 +18°C° 0 mm 3 mps 747 mmHg 95%
    03:00 +18°C° 0.1 mm 3 mps 746 mmHg 94%
    04:00 +18°C° 0.1 mm 3 mps 746 mmHg 93%
    05:00 +19°C° 0.1 mm 3 mps 746 mmHg 92%
    06:00 +20°C° 0.1 mm 4 mps 746 mmHg 88%
    07:00 +22°C° 0.1 mm 4 mps 746 mmHg 84%
    08:00 +23°C° 0.1 mm 5 mps 746 mmHg 79%
    09:00 +25°C° 0.1 mm 5 mps 746 mmHg 74%
    10:00 +26°C° 0.1 mm 5 mps 746 mmHg 69%
    11:00 +27°C° 0.1 mm 6 mps 746 mmHg 64%
    12:00 +27°C° 0.1 mm 6 mps 746 mmHg 63%
    13:00 +28°C° 0.1 mm 6 mps 746 mmHg 62%
    14:00 +28°C° 0.1 mm 6 mps 745 mmHg 62%
    15:00 +27°C° 0 mm 5 mps 745 mmHg 65%
    16:00 +27°C° 0 mm 5 mps 745 mmHg 68%
    17:00 +27°C° 0 mm 4 mps 745 mmHg 71%
    18:00 +25°C° 0 mm 4 mps 745 mmHg 76%
    19:00 +24°C° 0 mm 3 mps 745 mmHg 81%
    20:00 +21°C° 0 mm 3 mps 745 mmHg 87%
    21:00 +20°C° 0.2 mm 3 mps 745 mmHg 89%
    22:00 +20°C° 0.2 mm 3 mps 745 mmHg 91%
    23:00 +19°C° 0.2 mm 3 mps 745 mmHg 94%

    31 May, Friday

    Time Temperature Precipitation Wind Pressure Humidity
    00:00 +19°C° 0.3 mm 3 mps 745 mmHg 94%
    01:00 +19°C° 0.3 mm 3 mps 745 mmHg 94%
    02:00 +18°C° 0.3 mm 3 mps 745 mmHg 94%
    03:00 +19°C° 0 mm 3 mps 745 mmHg 93%
    04:00 +19°C° 0 mm 3 mps 745 mmHg 93%
    05:00 +19°C° 0 mm 3 mps 745 mmHg 92%
    06:00 +21°C° 0.2 mm 3 mps 745 mmHg 88%
    07:00 +22°C° 0.2 mm 3 mps 745 mmHg 84%
    08:00 +25°C° 0.2 mm 4 mps 745 mmHg 80%
    09:00 +25°C° 1.5 mm 3 mps 745 mmHg 77%
    10:00 +26°C° 1.5 mm 3 mps 745 mmHg 75%
    11:00 +27°C° 1.5 mm 3 mps 745 mmHg 72%
    12:00 +27°C° 0.7 mm 3 mps 745 mmHg 70%
    13:00 +27°C° 0.7 mm 3 mps 745 mmHg 68%
    14:00 +27°C° 0.7 mm 2 mps 745 mmHg 67%
    15:00 +27°C° 0.7 mm 2 mps 744 mmHg 68%
    16:00 +27°C° 0.7 mm 1 mps 744 mmHg 70%
    17:00 +27°C° 0.7 mm 1 mps 744 mmHg 71%
    18:00 +25°C° 0.3 mm 1 mps 744 mmHg 75%
    19:00 +24°C° 0.3 mm 1 mps 744 mmHg 80%
    20:00 +22°C° 0.3 mm 1 mps 744 mmHg 85%
    21:00 +22°C° 0 mm 1 mps 744 mmHg 86%
    22:00 +21°C° 0 mm 1 mps 744 mmHg 88%
    23:00 +20°C° 0 mm 2 mps 744 mmHg 89%

    1 June, Saturday

    Time Temperature Precipitation Wind Pressure Humidity
    00:00 +19°C° 0.4 mm 2 mps 744 mmHg 90%
    01:00 +19°C° 0.4 mm 2 mps 744 mmHg 91%
    02:00 +18°C° 0.4 mm 2 mps 743 mmHg 92%
    03:00 +19°C° 0.1 mm 2 mps 743 mmHg 92%
    04:00 +19°C° 0.1 mm 2 mps 743 mmHg 92%
    05:00 +19°C° 0.1 mm 2 mps 743 mmHg 92%
    06:00 +21°C° 0.1 mm 2 mps 743 mmHg 88%
    07:00 +24°C° 0.1 mm 3 mps 743 mmHg 83%
    08:00 +25°C° 0.1 mm 3 mps 743 mmHg 78%
    09:00 +26°C° 0 mm 4 mps 743 mmHg 72%
    10:00 +27°C° 0 mm 4 mps 743 mmHg 66%
    11:00 +28°C° 0 mm 4 mps 743 mmHg 60%
    12:00 +28°C° 0.1 mm 4 mps 743 mmHg 60%
    13:00 +28°C° 0.1 mm 4 mps 743 mmHg 61%
    14:00 +28°C° 0.1 mm 4 mps 742 mmHg 61%
    15:00 +28°C° 0.4 mm 3 mps 742 mmHg 67%
    16:00 +27°C° 0.4 mm 3 mps 742 mmHg 73%
    17:00 +26°C° 0.4 mm 2 mps 742 mmHg 78%
    18:00 +25°C° 0.5 mm 2 mps 742 mmHg 80%
    19:00 +23°C° 0.5 mm 2 mps 742 mmHg 82%
    20:00 +22°C° 0.5 mm 1 mps 742 mmHg 84%
    21:00 +20°C° 1.4 mm 2 mps 742 mmHg 86%
    22:00 +20°C° 1.4 mm 2 mps 742 mmHg 89%
    23:00 +19°C° 1.4 mm 2 mps 742 mmHg 91%
    Show more